Retour au catalogue

FENGYUN 1C DEB

ActifPO
NORAD 30658·DEBRIS·🇨🇳 China

Lancé May 10, 1999 depuis Taiyuan Satellite Launch Center

Loading…

Prochains Passages (prochaines 24 heures)

TLE

FraisSource: Space-Track

Époque: Sep 13, 2026, 11:21 UTC

1 30658U 99025APQ 26256.47297220  .00001370  00000-0  10333-2 0  9994
2 30658  98.4219 267.4194 0180628 190.4211 169.3184 13.88281091984951

Suivez FENGYUN 1C DEB en temps réel avec AllMySat

Download on the App Store